User: anonymous   Login
Location: Unspecified
(0.0000°N, 0.0000°E)
Time: 07:20:58
(UTC+00:00)
Language:

NOSS 2-3 (D) - Orbit

View from above orbital plane
View from above orbital plane
View from above satellite
View from above satellite

Ground track
Ground track

The orbit data is extracted from the following two-line orbital elements,

1 23862U 96029D   21115.86214880 0.00000200  00000-0  72344-4 0    03
2 23862  63.3536  27.8239 0726707  25.4698 334.5302 13.40926789    02
Epoch (UTC): 25 April 2021 20:41:29
Eccentricity: 0.0726707
inclination: 63.3536°
perigee height: 562 km
apogee height: 1649 km
right ascension of ascending node: 27.8239°
argument of perigee: 25.4698°
revolutions per day: 13.40926789
mean anomaly at epoch: 334.5302°
orbit number at epoch: 0

The dashed part of the orbit path shows where the satellite is in the earth's shadow,  

DLR